EW5295 Weather Reports


time (UTC)temp
C
wind
direction
speed
KPH
gust
KPH
rain 1hr
cm
rain 24hr
cm
rain mn
cm
humidity
%
barometer
mb
20260901014515 25 150 0.0 1.6 0.00 0.00 0.00 46 1006.2
20260901013013 26 161 0.0 0.0 0.00 0.00 0.00 45 1006.1
20260901011522 26 129 0.0 0.0 0.00 0.00 0.00 45 1006.2
20260901010010 26 150 0.0 1.6 0.00 0.00 0.00 43 1006.2
20260901004509 27 132 0.0 1.6 0.00 0.00 0.00 39 1006.3
20260901003051 27 132 0.0 1.6 0.00 0.00 0.00 38 1006.3
20260901001551 27 132 0.0 1.6 0.00 0.00 0.00 38 1006.4
20260901000037 27 161 0.0 1.6 0.00 0.00 0.00 39 1006.4
20260831234533 27 167 0.0 1.6 0.00 0.00 0.00 37 1006.5
20260831233011 27 138 0.0 1.6 0.00 0.00 0.00 36 1006.6
20260831231519 27 167 0.0 0.0 0.00 0.00 0.00 36 1006.6
20260831230056 27 212 0.0 1.6 0.00 0.00 0.00 39 1006.7
20260831224619 27 161 0.0 3.2 0.00 0.00 0.00 39 1006.9
20260831223037 27 232 0.0 1.6 0.00 0.00 0.00 40 1007.0
20260831221547 27 154 0.0 1.6 0.00 0.00 0.00 39 1007.1
20260831220032 26 161 0.0 0.0 0.00 0.00 0.00 44 1007.3
20260831214535 26 149 0.0 1.6 0.00 0.00 0.00 41 1007.3
20260831213026 26 148 0.0 1.6 0.00 0.00 0.00 45 1007.5
20260831211523 26 150 0.0 0.0 0.00 0.00 0.00 47 1007.7
20260831210020 26 184 0.0 1.6 0.00 0.00 0.00 46 1007.8
20260831204520 26 130 0.0 3.2 0.00 0.00 0.00 47 1007.9
20260831203008 25 131 0.0 1.6 0.00 0.00 0.00 46 1008.1
20260831201502 24 153 0.0 1.6 0.00 0.00 0.00 46 1008.3
20260831200057 23 323 0.0 4.8 0.00 0.00 0.00 49 1008.4
20260831194600 22 302 0.0 3.2 0.00 0.00 0.00 49 1008.7
20260831193057 22 176 0.0 4.8 0.00 0.00 0.00 51 1008.7
20260831191551 22 186 0.0 4.8 0.00 0.00 0.00 52 1009.0
20260831190046 21 276 0.0 3.2 0.00 0.00 0.00 55 1009.2
20260831184542 21 155 0.0 1.6 0.00 0.00 0.00 56 1009.4
20260831183041 21 184 0.0 3.2 0.00 0.00 0.00 57 1009.5
20260831181527 20 148 0.0 1.6 0.00 0.00 0.00 61 1009.7
20260831180032 20 191 0.0 3.2 0.00 0.00 0.00 61 1009.9
20260831174526 19 162 0.0 3.2 0.00 0.00 0.00 64 1010.0
20260831173035 18 161 0.0 1.6 0.00 0.00 0.00 65 1010.1
20260831171523 18 203 0.0 1.6 0.00 0.00 0.00 68 1010.2
20260831170022 17 146 0.0 1.6 0.00 0.00 0.00 70 1010.2
20260831164522 17 129 0.0 3.2 0.00 0.00 0.00 72 1010.4
20260831163020 16 151 0.0 1.6 0.00 0.00 0.00 76 1010.4
20260831161508 15 188 0.0 3.2 0.00 0.00 0.00 78 1010.5
20260831160013 15 159 0.0 3.2 0.00 0.00 0.00 79 1010.6
20260831154507 14 142 0.0 3.2 0.00 0.00 0.00 81 1010.6
20260831153006 13 179 0.0 1.6 0.00 0.00 0.00 83 1010.6
20260831151504 13 176 0.0 1.6 0.00 0.00 0.00 85 1010.7
20260831150007 12 163 0.0 1.6 0.00 0.00 0.00 87 1010.8
20260831144502 12 158 0.0 0.0 0.00 0.00 0.00 89 1010.8
20260831143113 -17 0.0 0.0 0.00 0.00 0.00 1010.8
20260831141537 -17 0.0 0.0 0.00 0.00 0.00 1010.8
20260831140035 -17 0.0 0.0 0.00 0.00 0.00 1010.9
20260831134521 -17 0.0 0.0 0.00 0.00 0.00 1010.8
20260831133013 -17 0.0 0.0 0.00 0.00 0.00 1011.0
20260831131508 -17 0.0 0.0 0.00 0.00 0.00 1011.0
20260831130004 -17 0.0 0.0 0.00 0.00 0.00 1011.1
20260831124604 -17 0.0 0.0 0.00 0.00 0.00 1011.1
20260831123059 11 153 0.0 0.0 0.00 0.00 0.00 88 1011.2
20260831121604 12 158 0.0 0.0 0.00 0.00 0.00 88 1011.3
20260831120054 12 158 0.0 0.0 0.00 0.00 0.00 88 1011.4
20260831114540 12 158 0.0 0.0 0.00 0.00 0.00 87 1011.5
20260831113039 12 158 0.0 0.0 0.00 0.00 0.00 87 1011.7
20260831111539 12 158 0.0 0.0 0.00 0.00 0.00 87 1011.7
20260831110037 12 158 0.0 0.0 0.00 0.00 0.00 87 1011.8
20260831104537 12 158 0.0 0.0 0.00 0.00 0.00 87 1011.7
20260831103036 12 158 0.0 0.0 0.00 0.00 0.00 87 1011.8
20260831101534 12 158 0.0 0.0 0.00 0.00 0.00 87 1011.9
20260831100046 12 158 0.0 0.0 0.00 0.00 0.00 87 1012.1
20260831094515 12 158 0.0 0.0 0.00 0.00 0.00 86 1012.3
20260831093032 12 158 0.0 0.0 0.00 0.00 0.00 87 1012.4
20260831091511 12 158 0.0 0.0 0.00 0.00 0.00 87 1012.6
20260831090010 12 158 0.0 0.0 0.00 0.00 0.00 86 1012.6
20260831084507 12 158 0.0 0.0 0.00 0.00 0.00 86 1012.8
20260831083006 13 158 0.0 0.0 0.00 0.00 0.00 86 1012.9
20260831081504 13 158 0.0 0.0 0.00 0.00 0.00 86 1013.1
20260831080003 13 158 0.0 0.0 0.00 0.00 0.00 86 1013.4
20260831074549 13 158 0.0 0.0 0.00 0.00 0.00 85 1013.3
20260831073047 13 158 0.0 0.0 0.00 0.00 0.00 84 1013.3
20260831071604 13 158 0.0 0.0 0.00 0.00 0.00 83 1013.6
20260831070041 14 158 0.0 0.0 0.00 0.00 0.00 82 1013.7
20260831064539 14 155 0.0 0.0 0.00 0.00 0.00 81 1013.8
20260831063039 14 155 0.0 0.0 0.00 0.00 0.00 81 1014.0
20260831061534 14 155 0.0 3.2 0.00 0.00 0.00 80 1014.1
20260831060038 15 134 0.0 0.0 0.00 0.00 0.00 79 1014.2
20260831054519 15 134 0.0 1.6 0.00 0.00 0.00 78 1014.3
20260831053039 15 135 0.0 1.6 0.00 0.00 0.00 77 1014.5
20260831051517 15 137 0.0 1.6 0.00 0.00 0.00 77 1014.8
20260831050014 15 94 0.0 1.6 0.00 0.00 0.00 76 1014.8
20260831044513 16 125 0.0 1.6 0.00 0.00 0.00 75 1015.0
20260831043010 16 122 0.0 4.8 0.00 0.00 0.00 74 1015.1
20260831041511 16 144 0.0 1.6 0.00 0.00 0.00 74 1015.0
20260831040008 16 159 0.0 0.0 0.00 0.00 0.00 72 1015.1
20260831034554 16 159 0.0 0.0 0.00 0.00 0.00 70 1015.1
20260831033054 17 158 0.0 0.0 0.00 0.00 0.00 68 1015.1
20260831031547 17 159 0.0 1.6 0.00 0.00 0.00 67 1015.1
20260831030046 17 130 0.0 1.6 0.00 0.00 0.00 65 1015.2
20260831024542 18 189 0.0 1.6 0.00 0.00 0.00 63 1015.2
20260831023041 18 153 0.0 4.8 0.00 0.00 0.00 61 1015.3
20260831021540 18 152 0.0 3.2 0.00 0.00 0.00 59 1015.3
20260831020056 19 128 0.0 4.8 0.00 0.00 0.00 58 1015.3